Location: Prague
(50.0830°N, 14.4670°E)
Time: 06:54:55
(UTC+02:00)

DOVE 4 - Pass Details

Date: 04 April 2023
Orbit: 584 x 791 km, 97.8° (Epoch: 29 May)

Event Time Altitude Azimuth Distance (km) Brightness Sun altitude
Rises 02:00:29 0° 358° (N) 3,139 ? -33.1°
Reaches altitude 10° 02:04:57 10° 319° (NW) 2,149 ? -32.9°
Enters shadow 02:05:41 10° 310° (NW) 2,111 ? -32.9°
